Abilene, TX

11:26 PM CST on February 23, 2017 (GMT -0600)
Abilene Regional

Weather History for KABI - November, 2011

Change the Weather History Date:

Wednesday, November 16, 2011

  Actual Average Record
Temperature  
Mean Temperature 48 °F 54 °F  
Max Temperature 57 °F 66 °F 83 °F (1963)
Min Temperature 38 °F 43 °F 19 °F (1932)
Degree Days  
Heating Degree Days 17 11  
Month to date heating degree days 115 134  
Since 1 July heating degree days 191 238  
Cooling Degree Days 0 0  
Month to date cooling degree days 27 15  
Year to date cooling degree days 3514 2404  
Moisture  
Dew Point 36 °F    
Average Humidity 59    
Maximum Humidity 76    
Minimum Humidity 42    
Precipitation  
Precipitation 0.00 in 0.05 in 1.88 in (1931)
Month to date precipitation 0.01 0.87  
Year to date precipitation 14.73 23.05  
Sea Level Pressure  
Sea Level Pressure 30.05 in    
Wind  
Wind Speed 11 mph (North)    
Max Wind Speed 23 mph    
Max Gust Speed 26 mph    
Visibility 10 miles    
Events      
T = Trace of Precipitation, MM = Missing Value Source: NWS Daily Summary

Daily Weather History Graph

Daily Weather History Graph

Search for Another Location

Airport or City:

Trip Planner

Search our weather history database for the weather conditions in past years. The results will help you decide how hot, cold, wet, or windy it might be!

Date:

Astronomy

Nov. 16, 2011 Rise Set
Actual Time 7:08 AM CST 5:37 PM CST
Civil Twilight 6:42 AM CST 6:03 PM CST
Nautical Twilight 6:13 AM CST 6:33 PM CST
Astronomical Twilight 5:43 AM CST 7:02 PM CST
Moon 10:50 PM CST (11/16) 11:47 AM CST (11/16)
Length of Visible Light 11h 21m
Length of Day
10h 28m
Waning Gibbous, 70% of the Moon is Illuminated
Nov 16
Waning Gibbous
Nov 18
Last Quarter
Nov 25
New
Dec 2
First Quarter
Dec 10
Full

Hourly Weather History & Observations

Time (CST) Temp. Windchill Dew Point Humidity Pressure Visibility Wind Dir Wind Speed Gust Speed Precip Events Conditions
12:52 AM 51.1 °F - 42.1 °F 71% 29.86 in 10.0 mi NNW 4.6 mph - N/A   Clear
1:52 AM 48.9 °F - 39.9 °F 71% 29.82 in 10.0 mi NW 5.8 mph - N/A   Clear
2:52 AM 48.0 °F - 39.9 °F 74% 29.82 in 10.0 mi NNW 5.8 mph - N/A   Clear
3:52 AM 46.0 °F - 39.0 °F 76% 29.81 in 10.0 mi Calm Calm - N/A   Clear
4:52 AM 46.0 °F 43.1 °F 37.9 °F 73% 29.83 in 10.0 mi NNW 5.8 mph - N/A   Clear
5:52 AM 44.1 °F 40.8 °F 36.0 °F 73% 29.87 in 10.0 mi NNW 5.8 mph - N/A   Clear
6:52 AM 44.1 °F - 36.0 °F 73% 29.90 in 10.0 mi Calm Calm - N/A   Clear
7:14 AM 42.8 °F - 35.6 °F 76% 29.94 in 10.0 mi Calm Calm - N/A   Mostly Cloudy
7:52 AM 46.9 °F - 37.9 °F 71% 29.94 in 10.0 mi NW 4.6 mph - N/A   Mostly Cloudy
8:39 AM 50.0 °F - 37.4 °F 62% 29.98 in 10.0 mi North 8.1 mph - N/A   Clear
8:52 AM 51.1 °F - 37.0 °F 59% 29.96 in 10.0 mi North 11.5 mph - N/A   Clear
9:52 AM 53.1 °F - 35.1 °F 50% 29.99 in 10.0 mi North 10.4 mph - N/A   Partly Cloudy
10:52 AM 57.0 °F - 37.9 °F 49% 30.00 in 10.0 mi North 12.7 mph - N/A   Clear
11:22 AM 55.4 °F - 39.2 °F 54% 30.04 in 10.0 mi NNW 12.7 mph - N/A   Mostly Cloudy
11:50 AM 57.2 °F - 39.2 °F 51% 30.04 in 10.0 mi North 12.7 mph - N/A   Scattered Clouds
11:52 AM 55.9 °F - 41.0 °F 57% 30.02 in 10.0 mi North 13.8 mph - N/A   Scattered Clouds
12:04 PM 55.4 °F - 42.8 °F 63% 30.04 in 10.0 mi North 15.0 mph - N/A   Mostly Cloudy
12:12 PM 55.4 °F - 42.8 °F 63% 30.05 in 10.0 mi North 16.1 mph - N/A   Mostly Cloudy
12:25 PM 53.6 °F - 42.8 °F 67% 30.05 in 10.0 mi North 16.1 mph - N/A   Overcast
12:52 PM 54.0 °F - 41.0 °F 62% 30.04 in 10.0 mi North 16.1 mph - N/A   Overcast
1:52 PM 53.1 °F - 37.0 °F 55% 30.06 in 10.0 mi North 21.9 mph - N/A   Overcast
2:48 PM 55.4 °F - 37.4 °F 51% 30.09 in 10.0 mi North 18.4 mph - N/A   Overcast
2:52 PM 55.0 °F - 37.0 °F 51% 30.07 in 10.0 mi NNW 16.1 mph - N/A   Overcast
3:52 PM 55.9 °F - 36.0 °F 47% 30.10 in 10.0 mi North 15.0 mph 23.0 mph N/A   Clear
4:52 PM 54.0 °F - 35.1 °F 49% 30.14 in 10.0 mi North 15.0 mph 23.0 mph N/A   Clear
5:52 PM 52.0 °F - 34.0 °F 50% 30.19 in 10.0 mi North 15.0 mph - N/A   Overcast
6:25 PM 51.8 °F - 32.0 °F 47% 30.22 in 10.0 mi North 13.8 mph - N/A   Scattered Clouds
6:52 PM 50.0 °F - 32.0 °F 50% 30.24 in 10.0 mi North 12.7 mph - N/A   Clear
7:52 PM 48.0 °F - 28.9 °F 48% 30.28 in 10.0 mi North 15.0 mph - N/A   Scattered Clouds
8:52 PM 46.0 °F 39.6 °F 25.0 °F 44% 30.31 in 10.0 mi North 15.0 mph 23.0 mph N/A   Clear
9:52 PM 43.0 °F 36.8 °F 23.0 °F 45% 30.35 in 10.0 mi North 11.5 mph - N/A   Clear
10:52 PM 39.9 °F 33.4 °F 23.0 °F 51% 30.37 in 10.0 mi North 10.4 mph - N/A   Clear
11:52 PM 37.9 °F 30.9 °F 23.0 °F 55% 30.38 in 10.0 mi North 10.4 mph - N/A   Clear